Regional Weather Roundup
Issued by NWS Charleston, SC

Current Version | Previous Version | Graphics & Text | Print | Product List | Glossary On
Versions: 1 2 3 4 5 6 7 8 9 10 11 12 13 14 15 16 17 18 19 20 21 22 23 24 25 26 27 28 29 30 31 32 33 34 35 36 37 38 39 40 41 42 43 44 45 46 47 48 49 50
439 ASUS42 KCHS 221227 RWRCHS REGIONAL WEATHER ROUNDUP NATIONAL WEATHER SERVICE CHARLESTON SC 700 AM EST SUN JAN 22 2017 NOTE: "FAIR" INDICATES FEW OR NO CLOUDS BELOW 12,000 FEET WITH NO SIGNIFICANT WEATHER AND/OR OBSTRUCTIONS TO VISIBILITY. NOT ALL STATIONS ARE QUALITY CONTROLLED. USE DATA WITH CAUTION... ESPECIALLY DEWPOINT OBSERVATIONS. SCZ027-030-031-034>040-042>050-221300- ...SOUTHEAST SOUTH CAROLINA... CITY SKY/WX TMP DP RH WIND PRES REMARKS N CHARLESTON LGT RAIN 62 60 93 SE5 29.67F 6HR MIN TEMP: 59; 6HR MAX TEMP: 63; 6HR PCP: 0.61; WATERFRONT PRK N/A 61 61 100 CALM 29.68R MOUNT PLEASANT FOG 63 61 94 CALM 29.67F VSB 3/4 JOHNS ISLAND DRIZZLE 61 61 100 CALM 29.66F PINOPOLIS NOT AVBL MONCKS CORNER RAIN 59 59 100 CALM 29.67F SUMMERVILLE LGT RAIN N/A N/A N/A CALM 29.66S BEAUFORT MCAS TSTM 62 60 93 SE10 29.63F FOG 6HR MIN TEMP: 57; 6HR MAX TEMP: 64; 6HR PCP: 0.98; BEAUFORT ARPT CLOUDY 59 59 100 E6 29.62F HILTON HEAD IS CLOUDY 61 61 100 NE6 29.64F WALTERBORO TSTM 61 61 100 CALM 29.66F ALLENDALE LGT RAIN 61 59 94 E6 29.61F ...SOUTHERN MIDLANDS AND PEE DEE... CITY SKY/WX TMP DP RH WIND PRES REMARKS GEORGETOWN CLOUDY 59 57 94 CALM 29.70F KINGSTREE RAIN 59 57 94 CALM 29.69R ORANGEBURG HVY RAIN 59 59 100 CALM 29.67F FOG 6HR MIN TEMP: 59; 6HR MAX TEMP: 60; 6HR PCP: 0.68; BARNWELL RAIN 61 61 100 NE5 29.66F AIKEN LGT RAIN 57 55 94 E16 29.63F MANNING HVY RAIN 59 55 88 CALM 29.69R COLUMBIA RAIN 60 58 92 NE3 29.68S FOG 6HR MIN TEMP: 60; 6HR MAX TEMP: 62; 6HR PCP: 0.67; SUMTER HVY RAIN 59 59 100 N5 29.68S FOG 6HR MIN TEMP: 59; 6HR MAX TEMP: 61; 6HR PCP: 0.22; FLORENCE RAIN 60 59 96 CALM 29.69F FOG 6HR MIN TEMP: 60; 6HR MAX TEMP: 62; 6HR PCP: 0.12; MYRTLE BEACH RAIN 61 55 82 SW7 29.75R N MYRTLE BEACH LGT RAIN 59 59 100 N3 29.70F FOG 6HR MIN TEMP: 58; 6HR MAX TEMP: 61; 6HR PCP: 0.02; $$ GAZ063-065-086>088-099>101-113>116-118-119-134>141-150-221300- ...SOUTHEAST GEORGIA... CITY SKY/WX TMP DP RH WIND PRES REMARKS SAVANNAH ARPT TSTM 59 56 89 NE5 29.65R FOG 6HR MIN TEMP: 61; 6HR MAX TEMP: 67; 6HR PCP: 1.84; HUNTER AAF FOG 61 61 100 W7G48 29.65R THUNDER VSB 3/4 6HR MIN TEMP: 61; 6HR MAX TEMP: 66; 6HR PCP: 0.89; FORT STEWART TSTM 61 59 94 CALM 29.63R FOG 6HR PCP: 1.16; STATESBORO N/A 62 32 33 SE6 29.60F SYLVANIA LGT RAIN N/A N/A N/A E7 29.60F CLAXTON TSTM N/A N/A N/A SE3 29.61F ...CSRA...CENTRAL AND FAR SOUTHEAST GEORGIA... CITY SKY/WX TMP DP RH WIND PRES REMARKS THOMSON CLOUDY 60 60 100 CALM 29.62F AUGUSTA-BUSH RAIN 61 59 93 E17 29.58F FOG 6HR MIN TEMP: 61; 6HR MAX TEMP: 63; 6HR PCP: 1.09; AUGUSTA-DANIEL MOCLDY 61 57 87 N15 29.59F SWAINSBORO FAIR 63 61 94 E3 29.61R VIDALIA CLOUDY 63 63 100 CALM 29.61R THUNDER EASTMAN PTSUNNY 61 61 100 CALM 29.61F HAZLEHURST CLOUDY 64 64 100 CALM 29.58F ALMA TSTM 63 62 97 SW17G28 29.64R FOG 6HR MIN TEMP: 62; 6HR MAX TEMP: 68; 6HR PCP: 1.51; WAYCROSS MOCLDY 70 70 100 SW9G17 29.60S JESUP LGT RAIN 70 64 83 N5 29.63R BAXLEY CLOUDY 63 63 100 SW6 29.60F BRUNSWICK CLEAR 70 66 88 S9 29.63S SAINT SIMONS PTCLDY 65 61 87 S8G17 29.62F 6HR MIN TEMP: 64; 6HR MAX TEMP: 69; $$ SCZ027-028-034-036>038-045-046-048>050-GAZ119-141-221300- ...LAKE AND SUPPLEMENTAL COASTAL OBSERVATIONS... STATION/POSITION TIME TEMP WIND PRES WAVE SWELL AIR SEA DIR/SP/G HT/PER HT/PER/DIR (UTC) (F) (DEG/KT/KT) (MB) (FT/S) (FT/S/D) WINYAH BAY 1145 59 150/ 3 1006.0S LAKE MURRAY 1120 59 CALM / 4 1005.4 ACE BASIN NERRS 1145 60 CALM 1004.0F FORT PULASKI 1200 60 59 100/ 6/ 8 1003.8 SAPELO ISLAND 1200 65 180/ 13 1003.0 $$ ANZ835-935-AMZ111-154-330-350-352-354-370-450-454-472-221300- ...C-MAN AND BUOY OBSERVATIONS... STATION/POSITION TIME TEMP WIND PRES WAVE SWELL AIR SEA DIR/SP/G HT/PER HT/PER/DIR (UTC) (F) (DEG/KT/KT) (MB) (FT/S) (FT/S/D) BUOY 41004 1150 64 68 300/ 16/ 19 1004.7R 4/ 6 2/130/ 8 BUOY 41008 1150 66 61 180/ 19/ 23 1002.6F 4/ 5 2/150/12 FOLLY BEACH CMAN 1200 60 CALM / 2 1004.8F CAPERS NEARSHORE 1108 58 56 240/ 6/ 12 1005.5R FRIPP NEARSHORE 1208 60 58 60/ 6/ 10 1004.4F STATION/POSITION TIME TEMP WIND PRES WAVE SWELL AIR SEA DIR/SP/G HT/PER HT/PER/DIR (UTC) (F) (DEG/KT/KT) (MB) (FT/S) (FT/S/D) 5E ST. MARYS GA 1200 63 N/A 3/ 4 2/100/11 FRYING PAN BUOY 1210 66 69 260/ 17/ 23 1006.0 BUOY 41025 1150 66 73 240/ 23/ 29 1003.8R 6/ 5 3/ 90/13 CAPE LOOKOUT NC 1200 59 250/ 11/ 13 1004.2F BUOY 41002 1150 72 71 210/ 17/ 23 1007.8R 7/ 7 2/100/13 BUOY 41010 NOT AVBL ST AUGUSTINE FL 1200 69 64 180/ 15/ 16 1005.9F $$

USA.gov is the U.S. government's official web portal to all federal, state and local government web resources and services.